Scottsboro, AL

9:34 AM CDT on August 30, 2016 (GMT -0500)
Scottsboro

Weather History for K4A6 - January, 2014

Change the Weather History Date:

Monday, January 13, 2014

  Actual Average (KHSV) Record (KHSV)
Temperature  
Mean Temperature 42 °F 41 °F  
Max Temperature 48 °F 51 °F 76 °F (1972)
Min Temperature 35 °F 32 °F -8 °F (1918)
Degree Days  
Heating Degree Days 24 24  
Month to date heating degree days 312  
Since 1 July heating degree days 1493  
Cooling Degree Days 0 0  
Month to date cooling degree days 0  
Year to date cooling degree days 0  
Moisture  
Dew Point 42 °F    
Average Humidity 87    
Maximum Humidity 100    
Minimum Humidity 54    
Precipitation  
Precipitation 0.00 in 0.16 in 1.56 in (1916)
Month to date precipitation 2.07  
Year to date precipitation 2.07  
Snow  
Snow 0.00 in - - ()
Month to date snowfall  
Since 1 July snowfall  
Snow Depth -    
Sea Level Pressure  
Sea Level Pressure 29.98 in    
Wind  
Wind Speed 4 mph (SW)    
Max Wind Speed 8 mph    
Max Gust Speed -    
Visibility 7 miles    
Events Rain    
T = Trace of Precipitation, MM = Missing Value Source: NWS Daily Summary

Daily Weather History Graph

Daily Weather History Graph

Search for Another Location

Airport or City:

Trip Planner

Search our weather history database for the weather conditions in past years. The results will help you decide how hot, cold, wet, or windy it might be!

Date:

Astronomy

Jan. 13, 2014 Rise Set
Actual Time 6:51 AM CST 4:54 PM CST
Civil Twilight 6:23 AM CST 5:22 PM CST
Nautical Twilight 5:52 AM CST 5:53 PM CST
Astronomical Twilight 5:22 AM CST 6:23 PM CST
Moon 3:08 PM CST (1/13) 4:40 AM CST (1/13)
Length of Visible Light 10h 58m
Length of Day
10h 03m
Waxing Gibbous, 95% of the Moon is Illuminated
Jan 13
Waxing Gibbous
Jan 15
Full
Jan 23
Last Quarter
Jan 30
New
Feb 6
First Quarter

Hourly Weather History & Observations

Time (CST) Temp. Windchill Dew Point Humidity Pressure Visibility Wind Dir Wind Speed Gust Speed Precip Events Conditions
12:15 AM 35.6 °F - 32.0 °F 87% 30.10 in 9.0 mi Calm Calm - N/A   Clear
12:35 AM 35.6 °F 31.7 °F 32.0 °F 87% 30.09 in 10.0 mi SSW 4.6 mph - N/A   Clear
12:55 AM 37.4 °F 32.8 °F 32.0 °F 81% 30.09 in 10.0 mi SSW 5.8 mph - N/A   Clear
1:15 AM 41.0 °F 36.4 °F 33.8 °F 76% 30.10 in 10.0 mi SW 6.9 mph - N/A   Clear
1:35 AM 39.2 °F 34.2 °F 33.8 °F 81% 30.10 in 10.0 mi SW 6.9 mph - N/A   Clear
1:55 AM 48.2 °F - 32.0 °F 54% 30.11 in 10.0 mi SW 6.9 mph - N/A   Clear
2:15 AM 48.2 °F - 32.0 °F 54% 30.11 in 10.0 mi SW 6.9 mph - N/A   Clear
2:35 AM 48.2 °F - 32.0 °F 54% 30.12 in 10.0 mi SW 8.1 mph - N/A   Clear
2:55 AM 48.2 °F - 32.0 °F 54% 30.11 in 10.0 mi SW 5.8 mph - N/A   Clear
3:15 AM 46.4 °F 45.2 °F 33.8 °F 62% 30.09 in 10.0 mi South 3.5 mph - N/A   Clear
3:35 AM 46.4 °F 44.3 °F 33.8 °F 62% 30.09 in 10.0 mi SSW 4.6 mph - N/A   Clear
3:55 AM 42.8 °F 40.1 °F 35.6 °F 76% 30.06 in 10.0 mi NNE 4.6 mph - N/A   Clear
4:15 AM 42.8 °F - 35.6 °F 76% 30.07 in 10.0 mi Calm Calm - N/A   Partly Cloudy
4:35 AM 44.6 °F 42.2 °F 35.6 °F 71% 30.06 in 10.0 mi South 4.6 mph - N/A   Scattered Clouds
4:55 AM 46.4 °F 42.9 °F 32.0 °F 57% 30.07 in 10.0 mi SW 6.9 mph - N/A   Overcast
5:15 AM 48.2 °F - 32.0 °F 54% 30.06 in 10.0 mi SW 4.6 mph - N/A   Overcast
5:35 AM 48.2 °F - 32.0 °F 54% 30.07 in 10.0 mi SSW 6.9 mph - N/A Rain Light Rain
5:55 AM 46.4 °F 43.5 °F 37.4 °F 71% 30.08 in 9.0 mi West 5.8 mph - N/A Rain Light Rain
6:15 AM 44.6 °F 40.7 °F 37.4 °F 76% 30.08 in 5.0 mi SW 6.9 mph - N/A Rain Light Rain
6:35 AM 44.6 °F 40.7 °F 39.2 °F 81% 30.09 in 5.0 mi SW 6.9 mph - N/A   Overcast
6:55 AM 42.8 °F 39.3 °F 39.2 °F 87% 30.09 in 4.0 mi SSW 5.8 mph - N/A Rain Light Rain
7:15 AM 42.8 °F 39.3 °F 41.0 °F 93% 30.08 in 10.0 mi SSW 5.8 mph - N/A Rain Light Rain
7:35 AM 44.6 °F 43.1 °F 41.0 °F 87% 30.09 in 10.0 mi SSW 3.5 mph - N/A   Partly Cloudy
7:55 AM 44.6 °F 42.2 °F 41.0 °F 87% 30.07 in 10.0 mi South 4.6 mph - N/A   Clear
8:15 AM 44.6 °F - 41.0 °F 87% 30.07 in 10.0 mi Calm Calm - N/A   Mostly Cloudy
8:35 AM 44.6 °F 43.1 °F 42.8 °F 93% 30.07 in 10.0 mi SSW 3.5 mph - N/A   Overcast
8:55 AM 44.6 °F 43.1 °F 41.0 °F 87% 30.08 in 10.0 mi SW 3.5 mph - N/A   Overcast
9:15 AM 44.6 °F - 42.8 °F 93% 30.06 in 10.0 mi Calm Calm - N/A   Overcast
9:35 AM 44.6 °F - 42.8 °F 93% 30.06 in 8.0 mi Calm Calm - N/A   Mostly Cloudy
9:55 AM 44.6 °F - 44.6 °F 100% 30.05 in 5.0 mi Calm Calm - N/A Rain Light Rain
10:15 AM 44.6 °F - 44.6 °F 100% 30.05 in 2.5 mi Calm Calm - N/A Rain Light Rain
10:35 AM 44.6 °F - 44.6 °F 100% 30.04 in 3.0 mi Calm Calm - N/A Rain Light Rain
10:55 AM 44.6 °F 43.1 °F 44.6 °F 100% 30.03 in 4.0 mi NE 3.5 mph - N/A Rain Light Rain
11:15 AM 44.6 °F - 44.6 °F 100% 30.02 in 9.0 mi Calm Calm - N/A Rain Light Rain
11:35 AM 44.6 °F 43.1 °F 44.6 °F 100% 30.01 in 7.0 mi North 3.5 mph - N/A Rain Light Rain
11:55 AM 44.6 °F 43.1 °F 44.6 °F 100% 29.98 in 8.0 mi NNE 3.5 mph - N/A Rain Light Rain
12:15 PM 44.6 °F - 44.6 °F 100% 29.97 in 5.0 mi Calm Calm - N/A Rain Light Rain
12:35 PM 44.6 °F 43.1 °F 44.6 °F 100% 29.95 in 2.5 mi NNE 3.5 mph - N/A Rain Light Rain
12:55 PM 44.6 °F - 44.6 °F 100% 29.94 in 3.0 mi Calm Calm - N/A Rain Light Rain
1:15 PM 46.4 °F - 46.4 °F 100% 29.93 in 4.0 mi Calm Calm - N/A Rain Light Rain
1:35 PM 46.4 °F 42.4 °F 44.6 °F 93% 29.91 in 5.0 mi SSW 8.1 mph - N/A Rain Light Rain
1:55 PM 48.2 °F - 42.8 °F 82% 29.90 in 5.0 mi SW 5.8 mph - N/A Rain Light Rain
2:15 PM 48.2 °F - 44.6 °F 87% 29.89 in 10.0 mi SW 3.5 mph - N/A   Mostly Cloudy
2:35 PM 48.2 °F - 44.6 °F 87% 29.89 in 7.0 mi SW 5.8 mph - N/A Rain Light Rain
2:55 PM 48.2 °F - 44.6 °F 87% 29.90 in 10.0 mi SSW 5.8 mph - N/A   Overcast
3:15 PM 48.2 °F - 44.6 °F 87% 29.88 in 10.0 mi SW 3.5 mph - N/A   Overcast
3:35 PM 48.2 °F - 44.6 °F 87% 29.89 in 10.0 mi SW 5.8 mph - N/A   Overcast
3:55 PM 48.2 °F - 44.6 °F 87% 29.91 in 10.0 mi SSW 4.6 mph - N/A   Overcast
4:15 PM 48.2 °F - 44.6 °F 87% 29.90 in 10.0 mi SW 3.5 mph - N/A   Overcast
4:35 PM 48.2 °F - 44.6 °F 87% 29.89 in 10.0 mi South 5.8 mph - N/A   Overcast
4:55 PM 48.2 °F - 44.6 °F 87% 29.89 in 8.0 mi South 6.9 mph - N/A   Overcast
5:15 PM 48.2 °F - 46.4 °F 93% 29.89 in 5.0 mi SSW 4.6 mph - N/A   Overcast
5:35 PM 48.2 °F - 46.4 °F 93% 29.88 in 5.0 mi SSW 5.8 mph - N/A Rain Light Rain
5:55 PM 48.2 °F - 46.4 °F 93% 29.89 in 5.0 mi SSW 4.6 mph - N/A Rain Light Rain
6:15 PM 48.2 °F - 46.4 °F 93% 29.89 in 9.0 mi SSW 5.8 mph - N/A   Overcast
6:35 PM 48.2 °F - 46.4 °F 93% 29.89 in 7.0 mi SW 3.5 mph - N/A   Overcast
6:55 PM 48.2 °F - 46.4 °F 93% 29.89 in 3.0 mi Calm Calm - N/A Rain Light Rain
7:15 PM 48.2 °F - 46.4 °F 93% 29.88 in 4.0 mi Calm Calm - N/A Rain Light Rain
7:35 PM 48.2 °F - 48.2 °F 100% 29.88 in 3.0 mi Calm Calm - N/A Rain Light Rain
7:55 PM 46.4 °F - 46.4 °F 100% 29.88 in 2.5 mi Calm Calm - N/A Rain Light Rain
8:15 PM 46.4 °F - 46.4 °F 100% 29.88 in 2.5 mi Calm Calm - N/A Rain Light Rain
8:35 PM 46.4 °F 45.2 °F 46.4 °F 100% 29.88 in 3.0 mi NE 3.5 mph - N/A Rain Light Rain
8:55 PM 46.4 °F - 46.4 °F 100% 29.88 in 2.0 mi Calm Calm - N/A Rain Light Rain
9:15 PM 46.4 °F - 46.4 °F 100% 29.88 in 2.5 mi Calm Calm - N/A Rain Light Rain
9:35 PM 46.4 °F - 46.4 °F 100% 29.88 in 3.0 mi Calm Calm - N/A   Overcast
9:55 PM 46.4 °F - 46.4 °F 100% 29.87 in 1.8 mi Calm Calm - N/A Rain Light Rain
10:15 PM 46.4 °F - 46.4 °F 100% 29.85 in 1.8 mi Calm Calm - N/A Rain Light Rain
10:35 PM 46.4 °F - 46.4 °F 100% 29.85 in 2.0 mi Calm Calm - N/A Rain Light Rain
10:55 PM 46.4 °F - 46.4 °F 100% 29.84 in 1.5 mi Calm Calm - N/A Rain Light Rain
11:15 PM 46.4 °F - 46.4 °F 100% 29.84 in 1.5 mi Calm Calm - N/A Rain Light Rain
11:35 PM 46.4 °F - 46.4 °F 100% 29.84 in 2.5 mi Calm Calm - N/A Rain Light Rain
11:55 PM 46.4 °F - 46.4 °F 100% 29.84 in 1.2 mi Calm Calm - N/A Rain Light Rain